Year,Month,Day,Hour,Minute,Value (Times are PST for temperature in C)
2021,08,11,00,00,19.50
2021,08,11,00,01,19.50
2021,08,11,00,02,19.40
2021,08,11,00,03,19.40
2021,08,11,00,04,19.40
2021,08,11,00,05,19.30
2021,08,11,00,06,19.20
2021,08,11,00,07,19.10
2021,08,11,00,08,19.10
2021,08,11,00,09,19.10
2021,08,11,00,10,19.00
2021,08,11,00,11,18.90
2021,08,11,00,12,18.90
2021,08,11,00,13,18.90
2021,08,11,00,14,18.80
2021,08,11,00,15,18.80
2021,08,11,00,16,18.80
2021,08,11,00,17,18.70
2021,08,11,00,18,18.70
2021,08,11,00,19,18.70
2021,08,11,00,20,18.60
2021,08,11,00,21,18.60
2021,08,11,00,22,18.50
2021,08,11,00,23,18.50
2021,08,11,00,24,18.50
2021,08,11,00,25,18.40
2021,08,11,00,26,18.40
2021,08,11,00,27,18.40
2021,08,11,00,28,18.30
2021,08,11,00,29,18.30
2021,08,11,00,30,18.30
2021,08,11,00,31,18.30
2021,08,11,00,32,18.30
2021,08,11,00,33,18.30
2021,08,11,00,34,18.30
2021,08,11,00,35,18.30
2021,08,11,00,36,18.30
2021,08,11,00,37,18.40
2021,08,11,00,38,18.40
2021,08,11,00,39,18.40
2021,08,11,00,40,18.40
2021,08,11,00,41,18.50
2021,08,11,00,42,18.50
2021,08,11,00,43,18.50
2021,08,11,00,44,18.50
2021,08,11,00,45,18.50
2021,08,11,00,46,18.50
2021,08,11,00,47,18.50
2021,08,11,00,48,18.50
2021,08,11,00,49,18.50
2021,08,11,00,50,18.60
2021,08,11,00,51,18.60
2021,08,11,00,52,18.60
2021,08,11,00,53,18.60
2021,08,11,00,54,18.60
2021,08,11,00,55,18.60
2021,08,11,00,56,18.60
2021,08,11,00,57,18.60
2021,08,11,00,58,18.60
2021,08,11,00,59,18.60
2021,08,11,01,00,18.60
2021,08,11,01,01,18.70
2021,08,11,01,02,18.70
2021,08,11,01,03,18.70
2021,08,11,01,04,18.70
2021,08,11,01,05,18.70
2021,08,11,01,06,18.70
2021,08,11,01,07,18.70
2021,08,11,01,08,18.70
2021,08,11,01,09,18.70
2021,08,11,01,10,18.70
2021,08,11,01,11,18.70
2021,08,11,01,12,18.70
2021,08,11,01,13,18.80
2021,08,11,01,14,18.80
2021,08,11,01,15,18.80
2021,08,11,01,16,18.80
2021,08,11,01,17,18.80
2021,08,11,01,18,18.80
2021,08,11,01,19,18.80
2021,08,11,01,20,18.80
2021,08,11,01,21,18.80
2021,08,11,01,22,18.80
2021,08,11,01,23,18.80
2021,08,11,01,24,18.80
2021,08,11,01,25,18.70
2021,08,11,01,26,18.70
2021,08,11,01,27,18.70
2021,08,11,01,28,18.70
2021,08,11,01,29,18.70
2021,08,11,01,30,18.70
2021,08,11,01,31,18.70
2021,08,11,01,32,18.70
2021,08,11,01,33,18.70
2021,08,11,01,34,18.70
2021,08,11,01,35,18.70
2021,08,11,01,36,18.70
2021,08,11,01,37,18.70
2021,08,11,01,38,18.70
2021,08,11,01,39,18.70
2021,08,11,01,40,18.70
2021,08,11,01,41,18.60
2021,08,11,01,42,18.60
2021,08,11,01,43,18.60
2021,08,11,01,44,18.60
2021,08,11,01,45,18.60
2021,08,11,01,46,18.60
2021,08,11,01,47,18.60
2021,08,11,01,48,18.60
2021,08,11,01,49,18.60
2021,08,11,01,50,18.60
2021,08,11,01,51,18.60
2021,08,11,01,52,18.50
2021,08,11,01,53,18.50
2021,08,11,01,54,18.50
2021,08,11,01,55,18.50
2021,08,11,01,56,18.50
2021,08,11,01,57,18.50
2021,08,11,01,58,18.50
2021,08,11,01,59,18.50
2021,08,11,02,00,18.50
2021,08,11,02,01,18.50
2021,08,11,02,02,18.50
2021,08,11,02,03,18.50
2021,08,11,02,04,18.50
2021,08,11,02,05,18.50
2021,08,11,02,06,18.50
2021,08,11,02,07,18.50
2021,08,11,02,08,18.50
2021,08,11,02,09,18.40
2021,08,11,02,10,18.40
2021,08,11,02,11,18.40
2021,08,11,02,12,18.30
2021,08,11,02,13,18.30
2021,08,11,02,14,18.30
2021,08,11,02,15,18.20
2021,08,11,02,16,18.20
2021,08,11,02,17,18.20
2021,08,11,02,18,18.20
2021,08,11,02,19,18.20
2021,08,11,02,20,18.20
2021,08,11,02,21,18.20
2021,08,11,02,22,18.10
2021,08,11,02,23,18.10
2021,08,11,02,24,18.10
2021,08,11,02,25,18.10
2021,08,11,02,26,18.00
2021,08,11,02,27,17.90
2021,08,11,02,28,17.90
2021,08,11,02,29,17.90
2021,08,11,02,30,17.90
2021,08,11,02,31,17.90
2021,08,11,02,32,17.90
2021,08,11,02,33,17.90
2021,08,11,02,34,17.90
2021,08,11,02,35,17.90
2021,08,11,02,36,17.90
2021,08,11,02,37,17.80
2021,08,11,02,38,17.80
2021,08,11,02,39,17.80
2021,08,11,02,40,17.80
2021,08,11,02,41,17.80
2021,08,11,02,42,17.80
2021,08,11,02,43,17.80
2021,08,11,02,44,17.80
2021,08,11,02,45,17.80
2021,08,11,02,46,17.80
2021,08,11,02,47,17.80
2021,08,11,02,48,17.70
2021,08,11,02,49,17.70
2021,08,11,02,50,17.70
2021,08,11,02,51,17.70
2021,08,11,02,52,17.60
2021,08,11,02,53,17.60
2021,08,11,02,54,17.60
2021,08,11,02,55,17.50
2021,08,11,02,56,17.50
2021,08,11,02,57,17.40
2021,08,11,02,58,17.30
2021,08,11,02,59,17.30
2021,08,11,03,00,17.20
2021,08,11,03,01,17.20
2021,08,11,03,02,17.10
2021,08,11,03,03,17.10
2021,08,11,03,04,17.00
2021,08,11,03,05,17.00
2021,08,11,03,06,17.00
2021,08,11,03,07,17.00
2021,08,11,03,08,16.90
2021,08,11,03,09,16.90
2021,08,11,03,10,16.90
2021,08,11,03,11,16.90
2021,08,11,03,12,16.90
2021,08,11,03,13,16.90
2021,08,11,03,14,16.90
2021,08,11,03,15,16.90
2021,08,11,03,16,16.80
2021,08,11,03,17,16.80
2021,08,11,03,18,16.80
2021,08,11,03,19,16.80
2021,08,11,03,20,16.80
2021,08,11,03,21,16.80
2021,08,11,03,22,16.80
2021,08,11,03,23,16.80
2021,08,11,03,24,16.80
2021,08,11,03,25,16.80
2021,08,11,03,26,16.80
2021,08,11,03,27,16.80
2021,08,11,03,28,16.80
2021,08,11,03,29,16.80
2021,08,11,03,30,16.90
2021,08,11,03,31,16.90
2021,08,11,03,32,16.90
2021,08,11,03,33,16.90
2021,08,11,03,34,16.90
2021,08,11,03,35,16.90
2021,08,11,03,36,16.90
2021,08,11,03,37,16.90
2021,08,11,03,38,16.90
2021,08,11,03,39,16.90
2021,08,11,03,40,16.90
2021,08,11,03,41,16.90
2021,08,11,03,42,16.90
2021,08,11,03,43,16.90
2021,08,11,03,44,16.90
2021,08,11,03,45,16.90
2021,08,11,03,46,16.90
2021,08,11,03,47,16.90
2021,08,11,03,48,16.90
2021,08,11,03,49,16.90
2021,08,11,03,50,16.90
2021,08,11,03,51,16.90
2021,08,11,03,52,16.90
2021,08,11,03,53,16.90
2021,08,11,03,54,16.90
2021,08,11,03,55,16.90
2021,08,11,03,56,16.90
2021,08,11,03,57,17.00
2021,08,11,03,58,17.00
2021,08,11,03,59,17.00
2021,08,11,04,00,17.00
2021,08,11,04,01,17.10
2021,08,11,04,02,17.10
2021,08,11,04,03,17.10
2021,08,11,04,04,17.20
2021,08,11,04,05,17.20
2021,08,11,04,06,17.20
2021,08,11,04,07,17.20
2021,08,11,04,08,17.20
2021,08,11,04,09,17.20
2021,08,11,04,10,17.10
2021,08,11,04,11,17.10
2021,08,11,04,12,17.10
2021,08,11,04,13,17.00
2021,08,11,04,14,17.00
2021,08,11,04,15,17.00
2021,08,11,04,16,17.00
2021,08,11,04,17,16.90
2021,08,11,04,18,16.90
2021,08,11,04,19,16.90
2021,08,11,04,20,16.90
2021,08,11,04,21,16.80
2021,08,11,04,22,16.80
2021,08,11,04,23,16.80
2021,08,11,04,24,16.80
2021,08,11,04,25,16.70
2021,08,11,04,26,16.70
2021,08,11,04,27,16.70
2021,08,11,04,28,16.70
2021,08,11,04,29,16.70
2021,08,11,04,30,16.70
2021,08,11,04,31,16.70
2021,08,11,04,32,16.80
2021,08,11,04,33,16.80
2021,08,11,04,34,16.80
2021,08,11,04,35,16.90
2021,08,11,04,36,16.90
2021,08,11,04,37,16.90
2021,08,11,04,38,16.90
2021,08,11,04,39,17.00
2021,08,11,04,40,17.00
2021,08,11,04,41,17.00
2021,08,11,04,42,17.00
2021,08,11,04,43,17.10
2021,08,11,04,44,17.10
2021,08,11,04,45,17.10
2021,08,11,04,46,17.10
2021,08,11,04,47,17.10
2021,08,11,04,48,17.10
2021,08,11,04,49,17.10
2021,08,11,04,50,17.10
2021,08,11,04,51,17.10
2021,08,11,04,52,17.20
2021,08,11,04,53,17.20
2021,08,11,04,54,17.20
2021,08,11,04,55,17.20
2021,08,11,04,56,17.20
2021,08,11,04,57,17.20
2021,08,11,04,58,17.30
2021,08,11,04,59,17.30
2021,08,11,05,00,17.30
2021,08,11,05,01,17.30
2021,08,11,05,02,17.30
2021,08,11,05,03,17.30
2021,08,11,05,04,17.30
2021,08,11,05,05,17.30
2021,08,11,05,06,17.30
2021,08,11,05,07,17.30
2021,08,11,05,08,17.30
2021,08,11,05,09,17.30
2021,08,11,05,10,17.30
2021,08,11,05,11,17.30
2021,08,11,05,12,17.40
2021,08,11,05,13,17.40
2021,08,11,05,14,17.40
2021,08,11,05,15,17.40
2021,08,11,05,16,17.40
2021,08,11,05,17,17.40
2021,08,11,05,18,17.40
2021,08,11,05,19,17.40
2021,08,11,05,20,17.50
2021,08,11,05,21,17.50
2021,08,11,05,22,17.50
2021,08,11,05,23,17.50
2021,08,11,05,24,17.50
2021,08,11,05,25,17.50
2021,08,11,05,26,17.50
2021,08,11,05,27,17.60
2021,08,11,05,28,17.60
2021,08,11,05,29,17.60
2021,08,11,05,30,17.70
2021,08,11,05,31,17.70
2021,08,11,05,32,17.70
2021,08,11,05,33,17.70
2021,08,11,05,34,17.70
2021,08,11,05,35,17.70
2021,08,11,05,36,17.70
2021,08,11,05,37,17.70
2021,08,11,05,38,17.70
2021,08,11,05,39,17.70
2021,08,11,05,40,17.70
2021,08,11,05,41,17.70
2021,08,11,05,42,17.70
2021,08,11,05,43,17.60
2021,08,11,05,44,17.60
2021,08,11,05,45,17.60
2021,08,11,05,46,17.60
2021,08,11,05,47,17.50
2021,08,11,05,48,17.50
2021,08,11,05,49,17.50
2021,08,11,05,50,17.50
2021,08,11,05,51,17.40
2021,08,11,05,52,17.40
2021,08,11,05,53,17.40
2021,08,11,05,54,17.40
2021,08,11,05,55,17.30
2021,08,11,05,56,17.30
2021,08,11,05,57,17.30
2021,08,11,05,58,17.30
2021,08,11,05,59,17.20
2021,08,11,06,00,17.20
2021,08,11,06,01,17.20
2021,08,11,06,02,17.20
2021,08,11,06,03,17.10
2021,08,11,06,04,17.10
2021,08,11,06,05,17.10
2021,08,11,06,06,17.10
2021,08,11,06,07,17.10
2021,08,11,06,08,17.10
2021,08,11,06,09,17.10
2021,08,11,06,10,17.10
2021,08,11,06,11,17.10
2021,08,11,06,12,17.10
2021,08,11,06,13,17.10
2021,08,11,06,14,17.10
2021,08,11,06,15,17.20
2021,08,11,06,16,17.20
2021,08,11,06,17,17.20
2021,08,11,06,18,17.20
2021,08,11,06,19,17.30
2021,08,11,06,20,17.30
2021,08,11,06,21,17.30
2021,08,11,06,22,17.30
2021,08,11,06,23,17.30
2021,08,11,06,24,17.40
2021,08,11,06,25,17.40
2021,08,11,06,26,17.40
2021,08,11,06,27,17.50
2021,08,11,06,28,17.50
2021,08,11,06,29,17.50
2021,08,11,06,30,17.60
2021,08,11,06,31,17.60
2021,08,11,06,32,17.70
2021,08,11,06,33,17.70
2021,08,11,06,34,17.70
2021,08,11,06,35,17.70
2021,08,11,06,36,17.80
2021,08,11,06,37,17.80
2021,08,11,06,38,17.90
2021,08,11,06,39,17.90
2021,08,11,06,40,17.90
2021,08,11,06,41,17.90
2021,08,11,06,42,17.90
2021,08,11,06,43,17.90
2021,08,11,06,44,18.00
2021,08,11,06,45,18.10
2021,08,11,06,46,18.10
2021,08,11,06,47,18.20
2021,08,11,06,48,18.20
2021,08,11,06,49,18.20
2021,08,11,06,50,18.30
2021,08,11,06,51,18.30
2021,08,11,06,52,18.40
2021,08,11,06,53,18.40
2021,08,11,06,54,18.50
2021,08,11,06,55,18.50
2021,08,11,06,56,18.60
2021,08,11,06,57,18.60
2021,08,11,06,58,18.70
2021,08,11,06,59,18.80
2021,08,11,07,00,18.80
2021,08,11,07,01,18.90
2021,08,11,07,02,18.90
2021,08,11,07,03,19.00
2021,08,11,07,04,19.10
2021,08,11,07,05,19.20
2021,08,11,07,06,19.30
2021,08,11,07,07,19.40
2021,08,11,07,08,19.50
2021,08,11,07,09,19.60
2021,08,11,07,10,19.70
2021,08,11,07,11,19.80
2021,08,11,07,12,19.90
2021,08,11,07,13,20.00
2021,08,11,07,14,20.20
2021,08,11,07,15,20.20
2021,08,11,07,16,20.30
2021,08,11,07,17,20.40
2021,08,11,07,18,20.50
2021,08,11,07,19,20.50
2021,08,11,07,20,20.60
2021,08,11,07,21,20.70
2021,08,11,07,22,20.70
2021,08,11,07,23,20.70
2021,08,11,07,24,20.80
2021,08,11,07,25,20.80
2021,08,11,07,26,20.80
2021,08,11,07,27,20.90
2021,08,11,07,28,20.90
2021,08,11,07,29,21.00
2021,08,11,07,30,21.00
2021,08,11,07,31,21.10
2021,08,11,07,32,21.20
2021,08,11,07,33,21.30
2021,08,11,07,34,21.30
2021,08,11,07,35,21.30
2021,08,11,07,36,21.30
2021,08,11,07,37,21.30
2021,08,11,07,38,21.40
2021,08,11,07,39,21.40
2021,08,11,07,40,21.40
2021,08,11,07,41,21.40
2021,08,11,07,42,21.40
2021,08,11,07,43,21.50
2021,08,11,07,44,21.60
2021,08,11,07,45,21.60
2021,08,11,07,46,21.60
2021,08,11,07,47,21.60
2021,08,11,07,48,21.60
2021,08,11,07,49,21.60
2021,08,11,07,50,21.60
2021,08,11,07,51,21.60
2021,08,11,07,52,21.60
2021,08,11,07,53,21.60
2021,08,11,07,54,21.50
2021,08,11,07,55,21.40
2021,08,11,07,56,21.40
2021,08,11,07,57,21.30
2021,08,11,07,58,21.40
2021,08,11,07,59,21.40
2021,08,11,08,00,21.40
2021,08,11,08,01,21.40
2021,08,11,08,02,21.40
2021,08,11,08,03,21.50
2021,08,11,08,04,21.60
2021,08,11,08,05,21.60
2021,08,11,08,06,21.60
2021,08,11,08,07,21.60
2021,08,11,08,08,21.60
2021,08,11,08,09,21.60
2021,08,11,08,10,21.60
2021,08,11,08,11,21.70
2021,08,11,08,12,21.70
2021,08,11,08,13,21.80
2021,08,11,08,14,21.90
2021,08,11,08,15,21.90
2021,08,11,08,16,21.90
2021,08,11,08,17,21.90
2021,08,11,08,18,22.00
2021,08,11,08,19,22.00
2021,08,11,08,20,21.90
2021,08,11,08,21,21.90
2021,08,11,08,22,21.90
2021,08,11,08,23,21.90
2021,08,11,08,24,21.90
2021,08,11,08,25,22.00
2021,08,11,08,26,22.00
2021,08,11,08,27,22.10
2021,08,11,08,28,22.10
2021,08,11,08,29,22.20
2021,08,11,08,30,22.20
2021,08,11,08,31,22.30
2021,08,11,08,32,22.30
2021,08,11,08,33,22.30
2021,08,11,08,34,22.30
2021,08,11,08,35,22.30
2021,08,11,08,36,22.40
2021,08,11,08,37,22.40
2021,08,11,08,38,22.40
2021,08,11,08,39,22.40
2021,08,11,08,40,22.30
2021,08,11,08,41,22.30
2021,08,11,08,42,22.30
2021,08,11,08,43,22.30
2021,08,11,08,44,22.30
2021,08,11,08,45,22.30
2021,08,11,08,46,22.30
2021,08,11,08,47,22.30
2021,08,11,08,48,22.30
2021,08,11,08,49,22.20
2021,08,11,08,50,22.30
2021,08,11,08,51,22.30
2021,08,11,08,52,22.30
2021,08,11,08,53,22.40
2021,08,11,08,54,22.40
2021,08,11,08,55,22.40
2021,08,11,08,56,22.50
2021,08,11,08,57,22.50
2021,08,11,08,58,22.50
2021,08,11,08,59,22.50
2021,08,11,09,00,22.60
2021,08,11,09,01,22.60
2021,08,11,09,02,22.60
2021,08,11,09,03,22.70
2021,08,11,09,04,22.70
2021,08,11,09,05,22.70
2021,08,11,09,06,22.60
2021,08,11,09,07,22.50
2021,08,11,09,08,22.50
2021,08,11,09,09,22.40
2021,08,11,09,10,22.40
2021,08,11,09,11,22.40
2021,08,11,09,12,22.30
2021,08,11,09,13,22.30
2021,08,11,09,14,22.30
2021,08,11,09,15,22.30
2021,08,11,09,16,22.30
2021,08,11,09,17,22.30
2021,08,11,09,18,22.30
2021,08,11,09,19,22.30
2021,08,11,09,20,22.30
2021,08,11,09,21,22.30
2021,08,11,09,22,22.30
2021,08,11,09,23,22.30
2021,08,11,09,24,22.30
2021,08,11,09,25,22.30
2021,08,11,09,26,22.30
2021,08,11,09,27,22.30
2021,08,11,09,28,22.30
2021,08,11,09,29,22.40
2021,08,11,09,30,22.40
2021,08,11,09,31,22.40
2021,08,11,09,32,22.40
2021,08,11,09,33,22.40
2021,08,11,09,34,22.40
2021,08,11,09,35,22.40
2021,08,11,09,36,22.40
2021,08,11,09,37,22.30
2021,08,11,09,38,22.30
2021,08,11,09,39,22.30
2021,08,11,09,40,22.30
2021,08,11,09,41,22.20
2021,08,11,09,42,22.20
2021,08,11,09,43,22.30
2021,08,11,09,44,22.30
2021,08,11,09,45,22.40
2021,08,11,09,46,22.40
2021,08,11,09,47,22.40
2021,08,11,09,48,22.40
2021,08,11,09,49,22.40
2021,08,11,09,50,22.50
2021,08,11,09,51,22.40
2021,08,11,09,52,22.40
2021,08,11,09,53,22.40
2021,08,11,09,54,22.40
2021,08,11,09,55,22.40
2021,08,11,09,56,22.40
2021,08,11,09,57,22.30
2021,08,11,09,58,22.30
2021,08,11,09,59,22.20
2021,08,11,10,00,22.20
2021,08,11,10,01,22.20
2021,08,11,10,02,22.20
2021,08,11,10,03,22.20
2021,08,11,10,04,22.20
2021,08,11,10,05,22.20
2021,08,11,10,06,22.20
2021,08,11,10,07,22.30
2021,08,11,10,08,22.30
2021,08,11,10,09,22.30
2021,08,11,10,10,22.40
2021,08,11,10,11,22.40
2021,08,11,10,12,22.40
2021,08,11,10,13,22.50
2021,08,11,10,14,22.50
2021,08,11,10,15,22.50
2021,08,11,10,16,22.60
2021,08,11,10,17,22.60
2021,08,11,10,18,22.60
2021,08,11,10,19,22.60
2021,08,11,10,20,22.60
2021,08,11,10,21,22.70
2021,08,11,10,22,22.70
2021,08,11,10,23,22.70
2021,08,11,10,24,22.60
2021,08,11,10,25,22.70
2021,08,11,10,26,22.80
2021,08,11,10,27,22.80
2021,08,11,10,28,22.80
2021,08,11,10,29,22.80
2021,08,11,10,30,22.80
2021,08,11,10,31,22.90
2021,08,11,10,32,22.90
2021,08,11,10,33,22.80
2021,08,11,10,34,22.90
2021,08,11,10,35,22.90
2021,08,11,10,36,23.00
2021,08,11,10,37,23.10
2021,08,11,10,38,23.20
2021,08,11,10,39,23.20
2021,08,11,10,40,23.20
2021,08,11,10,41,23.20
2021,08,11,10,42,23.10
2021,08,11,10,43,23.10
2021,08,11,10,44,23.10
2021,08,11,10,45,23.10
2021,08,11,10,46,23.10
2021,08,11,10,47,23.10
2021,08,11,10,48,23.10
2021,08,11,10,49,23.10
2021,08,11,10,50,23.10
2021,08,11,10,51,23.10
2021,08,11,10,52,23.10
2021,08,11,10,53,23.00
2021,08,11,10,54,22.90
2021,08,11,10,55,22.90
2021,08,11,10,56,22.90
2021,08,11,10,57,22.90
2021,08,11,10,58,22.90
2021,08,11,10,59,22.90
2021,08,11,11,00,22.90
2021,08,11,11,01,22.90
2021,08,11,11,02,22.80
2021,08,11,11,03,22.70
2021,08,11,11,04,22.70
2021,08,11,11,05,22.70
2021,08,11,11,06,22.70
2021,08,11,11,07,22.70
2021,08,11,11,08,22.80
2021,08,11,11,09,22.80
2021,08,11,11,10,22.90
2021,08,11,11,11,22.90
2021,08,11,11,12,22.90
2021,08,11,11,13,22.90
2021,08,11,11,14,22.90
2021,08,11,11,15,22.90
2021,08,11,11,16,22.90
2021,08,11,11,17,22.90
2021,08,11,11,18,22.90
2021,08,11,11,19,22.90
2021,08,11,11,20,22.90
2021,08,11,11,21,22.90
2021,08,11,11,22,22.90
2021,08,11,11,23,22.90
2021,08,11,11,24,22.90
2021,08,11,11,25,23.00
2021,08,11,11,26,23.10
2021,08,11,11,27,23.10
2021,08,11,11,28,23.00
2021,08,11,11,29,22.90
2021,08,11,11,30,22.90
2021,08,11,11,31,22.90
2021,08,11,11,32,22.90
2021,08,11,11,33,22.80
2021,08,11,11,34,22.80
2021,08,11,11,35,22.80
2021,08,11,11,36,22.70
2021,08,11,11,37,22.80
2021,08,11,11,38,22.80
2021,08,11,11,39,22.80
2021,08,11,11,40,22.80
2021,08,11,11,41,22.80
2021,08,11,11,42,22.80
2021,08,11,11,43,22.80
2021,08,11,11,44,22.90
2021,08,11,11,45,22.90
2021,08,11,11,46,22.90
2021,08,11,11,47,23.10
2021,08,11,11,48,23.10
2021,08,11,11,49,23.20
2021,08,11,11,50,23.30
2021,08,11,11,51,23.40
2021,08,11,11,52,23.60
2021,08,11,11,53,23.70
2021,08,11,11,54,23.70
2021,08,11,11,55,23.70
2021,08,11,11,56,23.70
2021,08,11,11,57,23.70
2021,08,11,11,58,23.60
2021,08,11,11,59,23.50
2021,08,11,12,00,23.40
2021,08,11,12,01,23.30
2021,08,11,12,02,23.30
2021,08,11,12,03,23.30
2021,08,11,12,04,23.30
2021,08,11,12,05,23.40
2021,08,11,12,06,23.60
2021,08,11,12,07,23.60
2021,08,11,12,08,23.60
2021,08,11,12,09,23.50
2021,08,11,12,10,23.40
2021,08,11,12,11,23.30
2021,08,11,12,12,23.20
2021,08,11,12,13,23.20
2021,08,11,12,14,23.20
2021,08,11,12,15,23.20
2021,08,11,12,16,23.30
2021,08,11,12,17,23.30
2021,08,11,12,18,23.30
2021,08,11,12,19,23.30
2021,08,11,12,20,23.20
2021,08,11,12,21,23.20
2021,08,11,12,22,23.20
2021,08,11,12,23,23.30
2021,08,11,12,24,23.50
2021,08,11,12,25,23.70
2021,08,11,12,26,23.70
2021,08,11,12,27,23.70
2021,08,11,12,28,23.70
2021,08,11,12,29,23.70
2021,08,11,12,30,23.70
2021,08,11,12,31,23.80
2021,08,11,12,32,23.80
2021,08,11,12,33,23.90
2021,08,11,12,34,23.90
2021,08,11,12,35,24.00
2021,08,11,12,36,24.10
2021,08,11,12,37,24.10
2021,08,11,12,38,23.90
2021,08,11,12,39,23.80
2021,08,11,12,40,23.70
2021,08,11,12,41,23.60
2021,08,11,12,42,23.40
2021,08,11,12,43,23.30
2021,08,11,12,44,23.40
2021,08,11,12,45,23.40
2021,08,11,12,46,23.40
2021,08,11,12,47,23.50
2021,08,11,12,48,23.60
2021,08,11,12,49,23.70
2021,08,11,12,50,23.80
2021,08,11,12,51,23.80
2021,08,11,12,52,23.70
2021,08,11,12,53,23.70
2021,08,11,12,54,23.70
2021,08,11,12,55,23.80
2021,08,11,12,56,23.70
2021,08,11,12,57,23.70
2021,08,11,12,58,23.70
2021,08,11,12,59,23.60
2021,08,11,13,00,23.60
2021,08,11,13,01,23.60
2021,08,11,13,02,23.60
2021,08,11,13,03,23.70
2021,08,11,13,04,23.60
2021,08,11,13,05,23.60
2021,08,11,13,06,23.40
2021,08,11,13,07,23.30
2021,08,11,13,08,23.30
2021,08,11,13,09,23.30
2021,08,11,13,10,23.30
2021,08,11,13,11,23.30
2021,08,11,13,12,23.30
2021,08,11,13,13,23.30
2021,08,11,13,14,23.30
2021,08,11,13,15,23.30
2021,08,11,13,16,23.30
2021,08,11,13,17,23.30
2021,08,11,13,18,23.30
2021,08,11,13,19,23.30
2021,08,11,13,20,23.20
2021,08,11,13,21,23.20
2021,08,11,13,22,23.30
2021,08,11,13,23,23.30
2021,08,11,13,24,23.40
2021,08,11,13,25,23.40
2021,08,11,13,26,23.40
2021,08,11,13,27,23.40
2021,08,11,13,28,23.40
2021,08,11,13,29,23.50
2021,08,11,13,30,23.60
2021,08,11,13,31,23.70
2021,08,11,13,32,23.70
2021,08,11,13,33,23.70
2021,08,11,13,34,23.70
2021,08,11,13,35,23.70
2021,08,11,13,36,23.70
2021,08,11,13,37,23.70
2021,08,11,13,38,23.70
2021,08,11,13,39,23.80
2021,08,11,13,40,23.90
2021,08,11,13,41,23.90
2021,08,11,13,42,23.90
2021,08,11,13,43,23.90
2021,08,11,13,44,23.90
2021,08,11,13,45,23.80
2021,08,11,13,46,23.90
2021,08,11,13,47,23.90
2021,08,11,13,48,23.90
2021,08,11,13,49,24.00
2021,08,11,13,50,24.10
2021,08,11,13,51,24.10
2021,08,11,13,52,24.10
2021,08,11,13,53,24.20
2021,08,11,13,54,24.30
2021,08,11,13,55,24.50
2021,08,11,13,56,24.60
2021,08,11,13,57,24.70
2021,08,11,13,58,24.70
2021,08,11,13,59,24.70
2021,08,11,14,00,24.60
2021,08,11,14,01,24.60
2021,08,11,14,02,24.60
2021,08,11,14,03,24.70
2021,08,11,14,04,24.70
2021,08,11,14,05,24.70
2021,08,11,14,06,24.70
2021,08,11,14,07,24.70
2021,08,11,14,08,24.60
2021,08,11,14,09,24.50
2021,08,11,14,10,24.40
2021,08,11,14,11,24.30
2021,08,11,14,12,24.20
2021,08,11,14,13,24.20
2021,08,11,14,14,24.20
2021,08,11,14,15,24.20
2021,08,11,14,16,24.30
2021,08,11,14,17,24.30
2021,08,11,14,18,24.20
2021,08,11,14,19,24.20
2021,08,11,14,20,24.20
2021,08,11,14,21,24.20
2021,08,11,14,22,24.30
2021,08,11,14,23,24.20
2021,08,11,14,24,24.20
2021,08,11,14,25,24.30
2021,08,11,14,26,24.30
2021,08,11,14,27,24.40
2021,08,11,14,28,24.50
2021,08,11,14,29,24.60
2021,08,11,14,30,24.80
2021,08,11,14,31,24.90
2021,08,11,14,32,25.00
2021,08,11,14,33,25.20
2021,08,11,14,34,25.20
2021,08,11,14,35,25.30
2021,08,11,14,36,25.30
2021,08,11,14,37,25.30
2021,08,11,14,38,25.20
2021,08,11,14,39,25.30
2021,08,11,14,40,25.30
2021,08,11,14,41,25.20
2021,08,11,14,42,25.30
2021,08,11,14,43,25.30
2021,08,11,14,44,25.30
2021,08,11,14,45,25.30
2021,08,11,14,46,25.20
2021,08,11,14,47,25.20
2021,08,11,14,48,25.30
2021,08,11,14,49,25.30
2021,08,11,14,50,25.30
2021,08,11,14,51,25.40
2021,08,11,14,52,25.50
2021,08,11,14,53,25.60
2021,08,11,14,54,25.60
2021,08,11,14,55,25.60
2021,08,11,14,56,25.70
2021,08,11,14,57,25.70
2021,08,11,14,58,25.70
2021,08,11,14,59,25.70
2021,08,11,15,00,25.70
2021,08,11,15,01,25.70
2021,08,11,15,02,25.60
2021,08,11,15,03,25.60
2021,08,11,15,04,25.70
2021,08,11,15,05,25.70
2021,08,11,15,06,25.60
2021,08,11,15,07,25.60
2021,08,11,15,08,25.50
2021,08,11,15,09,25.30
2021,08,11,15,10,25.20
2021,08,11,15,11,25.20
2021,08,11,15,12,25.20
2021,08,11,15,13,25.20
2021,08,11,15,14,25.20
2021,08,11,15,15,25.20
2021,08,11,15,16,25.20
2021,08,11,15,17,25.20
2021,08,11,15,18,25.20
2021,08,11,15,19,25.20
2021,08,11,15,20,25.30
2021,08,11,15,21,25.40
2021,08,11,15,22,25.50
2021,08,11,15,23,25.60
2021,08,11,15,24,25.70
2021,08,11,15,25,25.70
2021,08,11,15,26,25.60
2021,08,11,15,27,25.40
2021,08,11,15,28,25.30
2021,08,11,15,29,25.30
2021,08,11,15,30,25.40
2021,08,11,15,31,25.40
2021,08,11,15,32,25.50
2021,08,11,15,33,25.50
2021,08,11,15,34,25.50
2021,08,11,15,35,25.50
2021,08,11,15,36,25.60
2021,08,11,15,37,25.60
2021,08,11,15,38,25.60
2021,08,11,15,39,25.50
2021,08,11,15,40,25.50
2021,08,11,15,41,25.40
2021,08,11,15,42,25.40
2021,08,11,15,43,25.40
2021,08,11,15,44,25.50
2021,08,11,15,45,25.50
2021,08,11,15,46,25.60
2021,08,11,15,47,25.60
2021,08,11,15,48,25.60
2021,08,11,15,49,25.60
2021,08,11,15,50,25.60
2021,08,11,15,51,25.60
2021,08,11,15,52,25.70
2021,08,11,15,53,25.70
2021,08,11,15,54,25.70
2021,08,11,15,55,25.80
2021,08,11,15,56,25.90
2021,08,11,15,57,25.90
2021,08,11,15,58,25.90
2021,08,11,15,59,25.80
2021,08,11,16,00,25.60
2021,08,11,16,01,25.40
2021,08,11,16,02,25.20
2021,08,11,16,03,25.00
2021,08,11,16,04,24.90
2021,08,11,16,05,24.80
2021,08,11,16,06,24.60
2021,08,11,16,07,24.50
2021,08,11,16,08,24.50
2021,08,11,16,09,24.40
2021,08,11,16,10,24.40
2021,08,11,16,11,24.50
2021,08,11,16,12,24.50
2021,08,11,16,13,24.50
2021,08,11,16,14,24.50
2021,08,11,16,15,24.50
2021,08,11,16,16,24.50
2021,08,11,16,17,24.50
2021,08,11,16,18,24.50
2021,08,11,16,19,24.50
2021,08,11,16,20,24.50
2021,08,11,16,21,24.60
2021,08,11,16,22,24.60
2021,08,11,16,23,24.60
2021,08,11,16,24,24.60
2021,08,11,16,25,24.70
2021,08,11,16,26,24.70
2021,08,11,16,27,24.70
2021,08,11,16,28,24.70
2021,08,11,16,29,24.70
2021,08,11,16,30,24.70
2021,08,11,16,31,24.80
2021,08,11,16,32,24.80
2021,08,11,16,33,24.80
2021,08,11,16,34,24.90
2021,08,11,16,35,25.00
2021,08,11,16,36,25.00
2021,08,11,16,37,25.00
2021,08,11,16,38,25.10
2021,08,11,16,39,25.10
2021,08,11,16,40,25.10
2021,08,11,16,41,25.00
2021,08,11,16,42,24.90
2021,08,11,16,43,24.90
2021,08,11,16,44,25.00
2021,08,11,16,45,25.00
2021,08,11,16,46,25.00
2021,08,11,16,47,24.90
2021,08,11,16,48,24.90
2021,08,11,16,49,24.90
2021,08,11,16,50,24.90
2021,08,11,16,51,24.90
2021,08,11,16,52,24.80
2021,08,11,16,53,24.80
2021,08,11,16,54,24.70
2021,08,11,16,55,24.70
2021,08,11,16,56,24.60
2021,08,11,16,57,24.60
2021,08,11,16,58,24.60
2021,08,11,16,59,24.70
2021,08,11,17,00,24.70
2021,08,11,17,01,24.70
2021,08,11,17,02,24.80
2021,08,11,17,03,24.80
2021,08,11,17,04,24.70
2021,08,11,17,05,24.70
2021,08,11,17,06,24.60
2021,08,11,17,07,24.60
2021,08,11,17,08,24.60
2021,08,11,17,09,24.70
2021,08,11,17,10,24.70
2021,08,11,17,11,24.60
2021,08,11,17,12,24.70
2021,08,11,17,13,24.70
2021,08,11,17,14,24.70
2021,08,11,17,15,24.70
2021,08,11,17,16,24.70
2021,08,11,17,17,24.80
2021,08,11,17,18,24.80
2021,08,11,17,19,24.80